Regional Weather Roundup
Issued by NWS

Home | Current Version | Previous Version | Graphics & Text | Print | Product List | Glossary On
Versions: 1 2 3 4 5 6 7 8 9 10 11 12 13 14 15 16 17 18 19 20 21 22 23 24 25 26 27 28 29 30 31 32 33 34 35 36 37 38 39 40 41 42 43 44 45 46 47 48 49 50
000
ASUS43 KMPX 261301
RWRMN
WEATHER ROUNDUP FOR MINNESOTA
NATIONAL WEATHER SERVICE TWIN CITIES/CHANHASSEN MN
800 AM CDT MON SEP 26 2016


NOTE: "FAIR" INDICATES FEW OR NO CLOUDS BELOW 12,000 FEET WITH NO
SIGNIFICANT WEATHER AND/OR OBSTRUCTIONS TO VISIBILITY. N/A MEANS
CURRENT SKY AND/OR WEATHER CONDITIONS ARE NOT AVAILABLE.

MNZ060>063-068>070-261400-
   Twin Cities Metro

CITY           SKY/WX    TMP DP  RH WIND       PRES   REMARKS
TWIN CITIES    PTCLDY    52  39  61 W14       29.95R
ST PAUL        PTCLDY    52  40  63 W16G24    29.94S
CRYSTAL        CLEAR     51  38  60 W14       29.93S
BLAINE         PTCLDY    52  41  66 W10G17    29.93S
LAKEVILLE      CLEAR     48  39  71 W13G20    29.97S
EDEN PRAIRIE   CLEAR     51  40  65 W12       29.95S
LAKEVILLE      CLEAR     48  39  71 W13G20    29.97S
SOUTH ST PAUL  CLEAR     52  40  64 W12G17    29.94S
LAKE ELMO      FAIR      52  41  66 W12G20    29.94R
$$
MNZ001>005-007-008-013>017-022>024-027-028-261400-
   Northwest Minnesota

CITY           SKY/WX    TMP DP  RH WIND       PRES   REMARKS
BEMIDJI        CLOUDY    46  38  76 W17G24    29.84S
HALLOCK        PTCLDY    48  39  71 W16       29.88F
ROSEAU         MOCLDY    46  41  81 W13G21    29.80S
WARROAD        CLOUDY    48  45  87 W14G22    29.77S
THIEF RVR FALL CLEAR     46  38  73 W15       29.89S
CROOKSTON      CLEAR     46  39  76 NW16      29.93S
FOSSTON        CLOUDY    45  39  81 W16G25    29.90S
DETROIT LAKES  CLEAR     46  37  71 W18G26    29.95R
MOORHEAD       CLEAR     46  37  71 W15       29.99S
PARK RAPIDS    CLEAR     47  36  65 W15       29.88S
MAHNOMEN       CLOUDY    44  38  81 W17       29.92R
$$
MNZ006-009>011-018-025>026-261400-
   North Central Minnesota

CITY           SKY/WX    TMP DP  RH WIND       PRES   REMARKS
BAUDETTE       LGT RAIN  48  43  82 NW17G25   29.73S
FLAG ISLAND    CLOUDY    48  45  87 W26G32    29.70S
INTL FALLS     LGT RAIN  48  46  93 W17G25    29.65F
WASKISH        MOCLDY    48  43  81 W24G31    29.77S
BIG FORK       CLOUDY    46  43  87 W7        29.74S
GRAND RAPIDS   CLOUDY    48  42  80 W13       29.79R
ORR            MIX PCPN  46  43  87 W15G28    29.64S
COOK           LGT RAIN  46  45  93 W16G24    29.67S
WALKER         FAIR      44  38  78 W14G28    29.84F
$$
MNZ012-019>021-037-261400-
   Northeast Minnesota

CITY           SKY/WX    TMP DP  RH WIND       PRES   REMARKS
DULUTH         CLOUDY    49  45  86 W21G31    29.70S
ELY            DRIZZLE   48  46  93 W17G25    29.60S
HIBBING        LGT RAIN  46  44  93 W13G23    29.71S
EVELETH        LGT RAIN  47  45  90 W17G26    29.69S
DULUTH HARBOR  CLOUDY    54  46  76 W21       29.73S
TWO HARBORS    DRIZZLE   52  46  82 W10G24    29.64S
SILVER BAY     DRIZZLE   50  46  87 W9G21     29.59S
GRAND MARAIS     N/A     53  51  93 W8        29.51F
G MARAIS ARPRT CLOUDY    46  43  87 W9G17     29.52F
$$
MNZ029>031-032-039>041-046>048-054>057-064-261400-
   West Central Minnesota

CITY           SKY/WX    TMP DP  RH WIND       PRES   REMARKS
FERGUS FALLS   CLEAR     45  37  76 W15       30.01S
MORRIS         CLEAR     48  37  66 W16       30.00S
ALEXANDRIA     CLEAR     47  38  71 W17G28    29.98S
ELBOW LAKE     FAIR      45  37  72 NW15G23   30.00S
GLENWOOD       CLEAR     46  37  71 W15G22    29.98S
BENSON         CLEAR     48  36  61 NW14G21   30.01S
MADISON          N/A     48  39  71 W9        30.06S
WILLMAR        FAIR      48  39  71 W13       30.02S
$$
MNZ033>034-036-042>043-049>051-058-059-261400-
   Central Minnesota

CITY           SKY/WX    TMP DP  RH WIND       PRES   REMARKS
ST CLOUD       CLEAR     48  40  73 W15G21    29.93S
SAUK CENTRE    FAIR      46  38  75 W13       29.96S
PAYNESVILLE    CLEAR     47  38  73 W12       29.98S
AITKIN           N/A     50  37  62 W8        29.82S
PINE RIVER     CLEAR     46  39  76 W9        29.89S
BRAINERD       PTCLDY    48  39  71 W10       29.88S
STAPLES        CLEAR     45  37  76 W13       29.91S
LITTLE FALLS   CLEAR     46  36  66 W8G17     29.92S
LITCHFIELD     CLEAR     48  41  76 W12G18    29.99S
BUFFALO        CLEAR     49  40  70 W13G18    29.97S
MAPLE LAKE     CLEAR     50  41  70 W9        29.97S
HUTCHINSON     CLEAR     48  40  74 W12       30.01S
$$
MNZ037-044-045-052-053-261400-
   East Central Minnesota

CITY           SKY/WX    TMP DP  RH WIND       PRES   REMARKS
PRINCETON        N/A     50  41  71 W10       29.92S
MORA           CLEAR     48  37  66 W10G17    29.89S
CAMBRIDGE      CLEAR     52  39  62 W9        29.89R
MOOSE LAKE     MOCLDY    48  41  76 W12G17    29.79R
HINCKLEY       FAIR      48  43  81 W16       29.84S
CLOQUET        CLOUDY    48  43  81 W18G26    29.74S
MCGREGOR       PTCLDY    48  43  81 W10G16    29.81S
$$
MNZ071>073-080-081-089-090-097-098-261400-
   Southwest Minnesota

CITY           SKY/WX    TMP DP  RH WIND       PRES   REMARKS
MONTEVIDEO     CLEAR     48  37  66 NW9       30.06R
GRANITE FALLS  CLEAR     48  39  71 W13       30.06S
CANBY          CLEAR     50  37  60 NW16G22   30.09S
MARSHALL       CLEAR     49  36  61 W15       30.08R
REDWOOD FALLS  CLEAR     49  36  61 W15       30.04S
OLIVIA         CLEAR     46  37  71 W12       30.02S
PIPESTONE      CLEAR     45  37  76 W7        30.13R
WINDOM         CLEAR     46  37  71 W10       30.09S
WORTHINGTON    CLEAR     45  36  70 W13       30.13R
JACKSON        CLEAR     46  34  61 W12G18    30.10S
TRACY          CLEAR     49  38  66 W7        30.09R
$$
MNZ065>067-074>077-082>085-091>093-261400-
   South Central Minnesota

CITY           SKY/WX    TMP DP  RH WIND       PRES   REMARKS
MANKATO        CLEAR     49  39  68 W12       30.03R
ST JAMES       CLEAR     48  37  66 W10G18    30.07S
FAIRMONT       CLEAR     49  38  65 W16G22    30.08S
GLENCOE        CLEAR     49  42  75 W10G18    29.99S
FARIBAULT      CLEAR     52  39  62 W13       30.00S
OWATONNA       CLEAR     50  39  66 W13G18    30.01S
WASECA         CLEAR     50  39  66 W10       30.04R
ALBERT LEA     CLEAR     50  39  66 W9        30.03S
$$
MNZ078>079-086>088-094>096-261400-
   Southeast Minnesota

CITY           SKY/WX    TMP DP  RH WIND       PRES   REMARKS
ROCHESTER      CLEAR     49  40  71 W15G24    29.99S
RED WING       PTCLDY    52  39  62 W14G20    29.93S
STANTON        CLEAR     51  40  67 W13       29.97R
DODGE CENTER   CLEAR     48  39  71 W12       30.00R
WINONA         PTCLDY    54  41  62 W12G26    29.95S
AUSTIN         CLEAR     48  37  66 W10G18    30.02S
PRESTON        CLEAR     48  39  70 W10       30.00S
$$
ABBREVIATIONS USED IN REMARKS
   TC - TEMPERATURES IN CELSIUS
  WCI - WIND CHILL INDEX
   HX - HEAT INDEX
  VSB - VISIBILITY
$$




USA.gov is the U.S. government's official web portal to all federal, state and local government web resources and services.